GW2402 Weather Reports


Display with metric or nautical units.
time (UTC)temp
F
wind
direction
speed
MPH
gust
MPH
rain 1hr
in
rain 24hr
in
rain mn
in
humidity
%
barometer
mb
20260831131602 79 0 0.0 0.0 0.00 0.00 0.00 91 1015.7
20260831130050 78 0 0.0 0.0 0.00 0.00 0.00 92 1015.8
20260831124600 78 0 0.0 0.0 0.00 0.00 0.00 92 1015.5
20260831123059 78 0 0.0 0.0 0.00 0.00 0.00 92 1015.5
20260831121557 78 0 0.0 0.0 0.00 0.00 0.00 91 1015.3
20260831120049 78 0 0.0 0.0 0.00 0.00 0.00 91 1015.3
20260831114549 79 0 0.0 0.0 0.00 0.00 0.00 90 1015.2
20260831113059 79 0 0.0 0.0 0.00 0.00 0.00 90 1015.4
20260831111554 79 0 0.0 0.0 0.00 0.00 0.00 90 1015.4
20260831110048 79 0 0.0 0.0 0.00 0.00 0.00 90 1015.2
20260831104550 79 0 0.0 0.0 0.00 0.00 0.00 90 1015.2
20260831103045 79 0 0.0 1.0 0.00 0.00 0.00 89 1015.2
20260831101555 79 0 0.0 1.0 0.00 0.00 0.00 89 1015.0
20260831100104 79 0 0.0 1.0 0.00 0.00 0.00 88 1015.2
20260831094549 80 0 0.0 1.0 0.00 0.00 0.00 88 1015.3
20260831093102 80 330 0.0 1.0 0.00 0.00 0.00 88 1015.2
20260831091551 80 0 0.0 3.0 0.00 0.00 0.00 88 1014.9
20260831090057 80 0 0.0 1.0 0.00 0.00 0.00 88 1015.0
20260831084549 80 0 0.0 2.0 0.00 0.00 0.00 87 1015.0
20260831083108 80 0 0.0 2.0 0.00 0.00 0.00 86 1015.1
20260831081558 80 0 0.0 2.0 0.00 0.00 0.00 85 1015.3
20260831080123 81 0 0.0 1.0 0.00 0.00 0.00 84 1015.2
20260831074548 81 12 0.0 1.0 0.00 0.00 0.00 83 1015.4
20260831073054 81 0 0.0 2.0 0.00 0.00 0.00 82 1015.3
20260831071550 81 0 0.0 1.0 0.00 0.00 0.00 81 1015.1
20260831070100 82 3 0.0 1.0 0.00 0.00 0.00 80 1015.4
20260831064554 82 0 0.0 1.0 0.00 0.00 0.00 79 1015.5
20260831063111 82 0 0.0 1.0 0.00 0.00 0.00 78 1015.5
20260831061557 83 0 0.0 2.0 0.00 0.00 0.00 77 1015.3
20260831054556 84 0 0.0 1.0 0.00 0.00 0.00 74 1015.1
20260831053131 84 0 0.0 1.0 0.00 0.00 0.00 72 1015.0
20260831051559 85 0 0.0 1.0 0.00 0.00 0.00 71 1014.7
20260831050059 85 328 0.0 2.0 0.00 0.00 0.00 70 1014.5
20260831044637 86 0 0.0 3.0 0.00 0.00 0.00 69 1014.6
20260831043048 86 0 0.0 2.0 0.00 0.00 0.00 68 1014.4
20260831041603 87 252 0.0 1.0 0.00 0.00 0.00 66 1014.6
20260831040057 87 285 0.0 1.0 0.00 0.00 0.00 64 1014.7
20260831034601 88 0 0.0 3.0 0.00 0.00 0.00 63 1014.4
20260831033101 88 0 0.0 2.0 0.00 0.00 0.00 62 1014.3
20260831031555 89 259 0.0 1.0 0.00 0.00 0.00 62 1014.1
20260831030052 89 0 0.0 1.0 0.00 0.00 0.00 61 1013.8
20260831024546 89 0 0.0 1.0 0.00 0.00 0.00 60 1013.5
20260831023051 89 0 0.0 2.0 0.00 0.00 0.00 60 1013.5
20260831021557 90 232 0.0 1.0 0.00 0.00 0.00 60 1013.3
20260831020049 91 116 0.0 1.0 0.00 0.00 0.00 59 1013.0
20260831014547 91 0 0.0 2.0 0.00 0.00 0.00 58 1012.7
20260831013055 92 0 0.0 2.0 0.00 0.00 0.00 56 1012.3
20260831011555 92 0 0.0 0.0 0.00 0.00 0.00 50 1011.9
20260831010100 93 0 0.0 1.0 0.00 0.00 0.00 49 1011.8
20260831004546 94 0 0.0 0.0 0.00 0.00 0.00 48 1011.9
20260831003055 95 0 0.0 1.0 0.00 0.00 0.00 47 1012.0
20260831001547 95 81 0.0 1.0 0.00 0.00 0.00 46 1011.9
20260831000105 96 56 0.0 1.0 0.00 0.00 0.00 46 1011.8
20260830234550 96 0 0.0 1.0 0.00 0.00 0.00 47 1012.0
20260830233046 96 269 0.0 1.0 0.00 0.00 0.00 46 1012.0
20260830231558 97 0 0.0 2.0 0.00 0.00 0.00 45 1012.0
20260830230054 99 0 0.0 1.0 0.00 0.00 0.00 44 1011.9
20260830224600 98 0 0.0 1.0 0.00 0.00 0.00 43 1012.1
20260830223057 99 309 0.0 2.0 0.00 0.00 0.00 42 1012.1
20260830221555 100 0 0.0 4.0 0.00 0.00 0.00 41 1012.4
20260830220050 99 310 0.0 1.0 0.00 0.00 0.00 43 1012.6
20260830214554 98 280 0.0 4.0 0.00 0.00 0.00 45 1012.7
20260830213102 98 0 0.0 3.0 0.00 0.00 0.00 44 1012.8
20260830211552 97 0 0.0 2.0 0.00 0.00 0.00 46 1012.8
20260830210059 97 0 0.0 3.0 0.00 0.00 0.00 45 1012.9
20260830204555 96 0 0.0 1.0 0.00 0.00 0.00 47 1013.6
20260830203054 96 264 0.0 2.0 0.00 0.00 0.00 49 1014.0
20260830201549 96 235 0.0 5.0 0.00 0.00 0.00 50 1014.1
20260830200100 96 0 0.0 4.0 0.00 0.00 0.00 49 1014.5
20260830194555 96 0 0.0 2.0 0.00 0.00 0.00 50 1014.6
20260830193048 96 66 0.0 4.0 0.00 0.00 0.00 51 1015.1
20260830191559 95 0 0.0 2.0 0.00 0.00 0.00 52 1015.4
20260830190058 94 266 0.0 1.0 0.00 0.00 0.00 54 1015.5
20260830184556 94 0 0.0 2.0 0.00 0.00 0.00 55 1015.7
20260830183050 93 356 0.0 3.0 0.00 0.00 0.00 56 1015.8
20260830181547 93 0 0.0 5.0 0.00 0.00 0.00 57 1016.1
20260830180058 92 0 0.0 3.0 0.00 0.00 0.00 57 1016.3
20260830174548 93 0 0.0 2.0 0.00 0.00 0.00 59 1016.8
20260830173057 93 0 0.0 1.0 0.00 0.00 0.00 58 1016.7
20260830171558 91 0 0.0 1.0 0.00 0.00 0.00 62 1016.9
20260830170052 91 0 0.0 4.0 0.00 0.00 0.00 61 1016.9
20260830164600 90 215 0.0 2.0 0.00 0.00 0.00 64 1017.2
20260830163053 88 22 1.0 3.0 0.00 0.00 0.00 66 1017.4
20260830161608 88 0 0.0 4.0 0.00 0.00 0.00 70 1017.4
20260830160047 88 0 0.0 2.0 0.00 0.00 0.00 67 1017.4
20260830154556 87 347 0.0 2.0 0.00 0.00 0.00 71 1017.2
20260830153055 86 268 0.0 2.0 0.00 0.00 0.00 73 1017.4
20260830151550 84 0 0.0 3.0 0.00 0.00 0.00 77 1017.1
20260830150113 83 240 0.0 3.0 0.00 0.00 0.00 79 1017.0
20260830144556 83 354 0.0 1.0 0.00 0.00 0.00 80 1017.1
20260830143051 81 353 0.0 2.0 0.00 0.00 0.00 82 1017.1
20260830141549 81 0 0.0 1.0 0.00 0.00 0.00 83 1017.1
20260830140047 80 0 0.0 2.0 0.00 0.00 0.00 85 1017.0
20260830134558 79 0 0.0 0.0 0.00 0.00 0.00 86 1016.8
20260830133050 78 0 0.0 0.0 0.00 0.00 0.00 87 1016.6